FW9451 Weather Reports


Display with metric or nautical units.
time (UTC)temp
F
wind
direction
speed
MPH
gust
MPH
rain 1hr
in
rain 24hr
in
rain mn
in
humidity
%
barometer
mb
20260505114552 56 192 8.0 15.0 0.00 0.00 0.00 66 1009.2
20260505113054 55 218 9.0 16.0 0.00 0.00 0.00 66 1009.1
20260505111549 54 235 9.0 17.0 0.00 0.00 0.00 67 1009.1
20260505101554 53 182 6.0 13.0 0.00 0.00 0.00 68 1009.2
20260505100056 53 236 6.0 10.0 0.00 0.00 0.00 67 1009.2
20260505094555 53 207 6.0 11.0 0.00 0.00 0.00 67 1009.2
20260505093100 53 209 5.0 11.0 0.00 0.00 0.00 66 1009.2
20260505091606 54 215 5.0 11.0 0.00 0.00 0.00 65 1009.2
20260505090054 54 207 5.0 11.0 0.00 0.00 0.00 64 1009.2
20260505084556 54 223 6.0 11.0 0.00 0.00 0.00 64 1009.4
20260505083056 54 235 6.0 11.0 0.00 0.00 0.00 63 1009.4
20260505081557 54 218 7.0 13.0 0.00 0.00 0.00 63 1009.4
20260505080106 54 204 7.0 13.0 0.00 0.00 0.00 63 1009.6
20260505074555 55 234 10.0 16.0 0.00 0.00 0.00 63 1009.4
20260505073103 54 240 7.0 12.0 0.00 0.00 0.00 63 1009.4
20260505071600 55 241 6.0 10.0 0.00 0.00 0.00 62 1009.3
20260505070101 55 210 6.0 10.0 0.00 0.00 0.00 62 1009.3
20260505064600 55 212 8.0 13.0 0.00 0.00 0.00 61 1009.4
20260505063108 55 244 8.0 14.0 0.00 0.00 0.00 60 1009.4
20260505061552 56 226 9.0 15.0 0.00 0.00 0.00 59 1009.4
20260505060053 56 219 8.0 15.0 0.00 0.00 0.00 59 1009.3
20260505054604 57 238 9.0 15.0 0.00 0.00 0.00 58 1009.4
20260505053057 57 219 8.0 12.0 0.00 0.00 0.00 58 1009.4
20260505051552 57 188 7.0 15.0 0.00 0.00 0.00 57 1009.2
20260505041556 57 207 9.0 20.0 0.00 0.00 0.00 56 1009.0
20260505040059 57 192 7.0 14.0 0.00 0.00 0.00 56 1008.9
20260505034554 57 174 9.0 17.0 0.00 0.00 0.00 55 1008.6
20260505033049 58 218 11.0 19.0 0.00 0.00 0.00 55 1008.6
20260505031604 57 216 10.0 22.0 0.00 0.00 0.00 56 1008.5
20260505030054 57 200 8.0 17.0 0.00 0.00 0.00 55 1008.3
20260505024559 59 213 6.0 10.0 0.00 0.00 0.00 49 1008.3
20260505023048 59 175 5.0 8.0 0.00 0.00 0.00 50 1008.2
20260505021555 61 148 4.0 8.0 0.00 0.00 0.00 45 1008.2
20260505020050 61 209 4.0 10.0 0.00 0.00 0.00 44 1008.0
20260505014604 62 179 4.0 10.0 0.00 0.00 0.00 42 1008.0
20260505013049 63 205 5.0 10.0 0.00 0.00 0.00 42 1007.8
20260505011556 63 235 6.0 9.0 0.00 0.00 0.00 40 1007.6
20260505010053 63 202 5.0 8.0 0.00 0.00 0.00 40 1007.5
20260505004546 63 234 6.0 10.0 0.00 0.00 0.00 40 1007.5
20260505003048 63 204 5.0 8.0 0.00 0.00 0.00 41 1007.2
20260505001550 64 224 5.0 9.0 0.00 0.00 0.00 40 1007.0
20260505000100 64 225 5.0 11.0 0.00 0.00 0.00 40 1006.8
20260504234555 64 215 5.0 8.0 0.00 0.00 0.00 40 1006.8
20260504233106 65 229 4.0 8.0 0.00 0.00 0.00 39 1006.7
20260504231549 66 231 6.0 9.0 0.00 0.00 0.00 38 1006.5
20260504230049 66 229 9.0 16.0 0.00 0.00 0.00 38 1006.2
20260504224550 66 219 6.0 14.0 0.00 0.00 0.00 38 1006.2
20260504223109 66 227 8.0 16.0 0.00 0.00 0.00 38 1006.1
20260504221554 66 247 3.0 10.0 0.00 0.00 0.00 39 1006.2
20260504220050 67 249 8.0 14.0 0.00 0.00 0.00 37 1006.1
20260504214548 67 293 6.0 13.0 0.00 0.00 0.00 36 1006.0
20260504213100 67 211 8.0 20.0 0.00 0.00 0.00 37 1006.1
20260504211545 67 246 13.0 20.0 0.00 0.00 0.00 37 1006.0
20260504210057 67 252 5.0 12.0 0.00 0.00 0.00 38 1005.9
20260504204555 67 215 5.0 13.0 0.00 0.00 0.00 39 1005.9
20260504203109 66 218 9.0 17.0 0.00 0.00 0.00 39 1005.9
20260504201601 66 297 10.0 18.0 0.00 0.00 0.00 39 1006.0
20260504200057 66 302 6.0 19.0 0.00 0.00 0.00 42 1006.2
20260504194552 65 261 7.0 17.0 0.00 0.00 0.00 42 1006.1
20260504193055 65 269 8.0 18.0 0.00 0.00 0.00 41 1006.1
20260504191557 65 280 9.0 21.0 0.00 0.00 0.00 41 1006.2
20260504190052 63 280 11.0 20.0 0.00 0.00 0.00 43 1006.3
20260504184551 64 257 6.0 13.0 0.00 0.00 0.00 43 1006.6
20260504183050 60 256 3.0 14.0 0.00 0.00 0.00 48 1006.5
20260504181557 61 284 2.0 14.0 0.00 0.00 0.00 45 1006.5
20260504180048 61 214 10.0 18.0 0.00 0.00 0.00 43 1006.6
20260504174549 61 259 11.0 21.0 0.00 0.00 0.00 43 1006.4
20260504173048 61 292 9.0 20.0 0.00 0.00 0.00 42 1006.7
20260504171557 62 241 16.0 26.0 0.00 0.00 0.00 38 1006.6